{"data":{"norad_id":43461,"epoch":"2026-05-25T04:20:27.690720Z","epoch_age_seconds":59710,"freshness":"FRESH","line1":"1 43461U 18043A   26145.18087605  .00000296  00000+0  71035-4 0  9993","line2":"2 43461  98.4558 116.2865 0002588 125.0096 235.1347 14.60586491428333","mean_motion":14.60586491,"eccentricity":0.0002588,"inclination_deg":98.4558,"raan_deg":116.2865,"arg_perigee_deg":125.0096,"mean_anomaly_deg":235.1347,"bstar":7.1035e-5,"rev_number":42833,"period_min":98.590532561622,"perigee_km":689.45133084006,"apogee_km":693.11046154312,"semimajor_km":7069.4178961916,"source":"CELESTRAK","updated_at":"2026-05-25T13:38:12.830246Z"}}